When you browse on this site, cookies collect data to enhance your experience and personalize the content and advertising you see.
Visit our Privacy Policy to learn more. By continuing to use the site, you agree to this use of cookies and data.
  • In Romania
  • List of Countries
  • For 7 days
  • Water Temperature
  • Weather Map
  • Weather Widgets
  • user-avatar
    Login

    Hourly Weather Ali Bayramli

    Today, 21 August, Wednesday

    Time Temperature Precipitation Wind Pressure Humidity
    00:00 +25°C° 0 mm 1 mps 759 mmHg 50%
    01:00 +25°C° 0 mm 1 mps 759 mmHg 49%
    02:00 +25°C° 0 mm 1 mps 759 mmHg 49%
    03:00 +24°C° 0 mm 1 mps 759 mmHg 48%
    04:00 +25°C° 0 mm 1 mps 759 mmHg 46%
    05:00 +25°C° 0 mm 1 mps 759 mmHg 45%
    06:00 +26°C° 0 mm 1 mps 759 mmHg 43%
    07:00 +29°C° 0 mm 1 mps 759 mmHg 36%
    08:00 +32°C° 0 mm 1 mps 759 mmHg 28%
    09:00 +34°C° 0 mm 1 mps 759 mmHg 21%
    10:00 +36°C° 0 mm 1 mps 759 mmHg 19%
    11:00 +37°C° 0 mm 1 mps 758 mmHg 16%
    12:00 +40°C° 0 mm 2 mps 758 mmHg 14%
    13:00 +40°C° 0 mm 3 mps 757 mmHg 13%
    14:00 +41°C° 0 mm 5 mps 757 mmHg 13%
    15:00 +43°C° 0 mm 7 mps 757 mmHg 13%
    16:00 +40°C° 0 mm 6 mps 756 mmHg 18%
    17:00 +36°C° 0 mm 6 mps 756 mmHg 24%
    18:00 +34°C° 0 mm 5 mps 756 mmHg 29%
    19:00 +32°C° 0 mm 4 mps 756 mmHg 37%
    20:00 +29°C° 0 mm 3 mps 756 mmHg 44%
    21:00 +27°C° 0 mm 2 mps 756 mmHg 52%
    22:00 +26°C° 0 mm 2 mps 756 mmHg 53%
    23:00 +26°C° 0 mm 1 mps 756 mmHg 54%

    Tomorrow, 22 August, Thursday

    Time Temperature Precipitation Wind Pressure Humidity
    00:00 +25°C° 0 mm 1 mps 756 mmHg 55%
    01:00 +25°C° 0 mm 2 mps 756 mmHg 53%
    02:00 +25°C° 0 mm 2 mps 756 mmHg 51%
    03:00 +25°C° 0 mm 2 mps 756 mmHg 49%
    04:00 +25°C° 0 mm 2 mps 756 mmHg 47%
    05:00 +26°C° 0 mm 1 mps 756 mmHg 46%
    06:00 +26°C° 0 mm 1 mps 756 mmHg 45%
    07:00 +29°C° 0 mm 1 mps 756 mmHg 38%
    08:00 +32°C° 0 mm 1 mps 756 mmHg 30%
    09:00 +34°C° 0 mm 1 mps 756 mmHg 23%
    10:00 +37°C° 0 mm 2 mps 756 mmHg 20%
    11:00 +39°C° 0 mm 3 mps 756 mmHg 17%
    12:00 +41°C° 0 mm 4 mps 755 mmHg 14%
    13:00 +41°C° 0 mm 5 mps 755 mmHg 15%
    14:00 +41°C° 0 mm 6 mps 755 mmHg 15%
    15:00 +41°C° 0 mm 6 mps 754 mmHg 15%
    16:00 +39°C° 0 mm 6 mps 754 mmHg 19%
    17:00 +37°C° 0 mm 5 mps 754 mmHg 22%
    18:00 +35°C° 0 mm 5 mps 754 mmHg 25%
    19:00 +33°C° 0 mm 4 mps 755 mmHg 30%
    20:00 +30°C° 0 mm 3 mps 755 mmHg 36%
    21:00 +28°C° 0 mm 2 mps 755 mmHg 41%
    22:00 +27°C° 0 mm 2 mps 755 mmHg 44%
    23:00 +26°C° 0 mm 2 mps 755 mmHg 47%

    Day after tomorrow, 23 August, Friday

    Time Temperature Precipitation Wind Pressure Humidity
    00:00 +26°C° 0 mm 1 mps 755 mmHg 49%
    01:00 +26°C° 0 mm 1 mps 755 mmHg 47%
    02:00 +26°C° 0 mm 2 mps 755 mmHg 45%
    03:00 +26°C° 0 mm 2 mps 755 mmHg 42%
    04:00 +27°C° 0 mm 2 mps 755 mmHg 42%
    05:00 +27°C° 0 mm 2 mps 756 mmHg 42%
    06:00 +27°C° 0 mm 1 mps 756 mmHg 42%
    07:00 +29°C° 0 mm 1 mps 756 mmHg 37%
    08:00 +32°C° 0 mm 1 mps 756 mmHg 32%
    09:00 +34°C° 0 mm 1 mps 756 mmHg 27%
    10:00 +37°C° 0 mm 2 mps 756 mmHg 23%
    11:00 +39°C° 0 mm 3 mps 755 mmHg 20%
    12:00 +42°C° 0 mm 4 mps 755 mmHg 17%
    13:00 +42°C° 0 mm 5 mps 755 mmHg 16%
    14:00 +42°C° 0 mm 6 mps 755 mmHg 15%
    15:00 +44°C° 0 mm 7 mps 754 mmHg 15%
    16:00 +40°C° 0 mm 7 mps 754 mmHg 21%
    17:00 +38°C° 0 mm 7 mps 754 mmHg 28%
    18:00 +35°C° 0 mm 7 mps 754 mmHg 34%
    19:00 +33°C° 0 mm 6 mps 755 mmHg 40%
    20:00 +32°C° 0 mm 5 mps 755 mmHg 47%
    21:00 +29°C° 0 mm 4 mps 756 mmHg 53%
    22:00 +29°C° 0 mm 4 mps 755 mmHg 51%
    23:00 +29°C° 0 mm 4 mps 755 mmHg 50%

    24 August, Saturday

    Time Temperature Precipitation Wind Pressure Humidity
    00:00 +29°C° 0 mm 4 mps 755 mmHg 48%
    01:00 +29°C° 0 mm 4 mps 755 mmHg 46%
    02:00 +29°C° 0 mm 4 mps 755 mmHg 43%
    03:00 +28°C° 0 mm 4 mps 755 mmHg 41%
    04:00 +29°C° 0 mm 3 mps 755 mmHg 42%
    05:00 +29°C° 0 mm 3 mps 755 mmHg 44%
    06:00 +29°C° 0 mm 3 mps 756 mmHg 46%
    07:00 +32°C° 0 mm 4 mps 756 mmHg 40%
    08:00 +35°C° 0 mm 5 mps 756 mmHg 34%
    09:00 +37°C° 0 mm 5 mps 756 mmHg 28%
    10:00 +40°C° 0 mm 6 mps 756 mmHg 25%
    11:00 +41°C° 0 mm 7 mps 756 mmHg 21%
    12:00 +43°C° 0 mm 8 mps 756 mmHg 18%
    13:00 +41°C° 0 mm 8 mps 756 mmHg 19%
    14:00 +41°C° 0 mm 7 mps 756 mmHg 20%
    15:00 +40°C° 0 mm 7 mps 755 mmHg 21%
    16:00 +38°C° 0 mm 7 mps 755 mmHg 24%
    17:00 +35°C° 0 mm 6 mps 755 mmHg 27%
    18:00 +34°C° 0 mm 6 mps 756 mmHg 31%
    19:00 +32°C° 0 mm 5 mps 756 mmHg 33%
    20:00 +30°C° 0 mm 4 mps 757 mmHg 36%
    21:00 +28°C° 0 mm 3 mps 757 mmHg 38%
    22:00 +28°C° 0 mm 3 mps 757 mmHg 37%
    23:00 +28°C° 0 mm 3 mps 757 mmHg 36%

    25 August, Sunday

    Time Temperature Precipitation Wind Pressure Humidity
    00:00 +27°C° 0 mm 3 mps 757 mmHg 36%
    01:00 +26°C° 0 mm 3 mps 757 mmHg 36%
    02:00 +26°C° 0 mm 3 mps 757 mmHg 36%
    03:00 +25°C° 0 mm 2 mps 757 mmHg 37%
    04:00 +25°C° 0 mm 2 mps 757 mmHg 38%
    05:00 +25°C° 0 mm 2 mps 757 mmHg 40%
    06:00 +25°C° 0 mm 2 mps 757 mmHg 41%
    07:00 +28°C° 0 mm 2 mps 757 mmHg 34%
    08:00 +31°C° 0 mm 2 mps 758 mmHg 28%
    09:00 +35°C° 0 mm 2 mps 758 mmHg 21%
    10:00 +36°C° 0 mm 3 mps 758 mmHg 19%
    11:00 +38°C° 0 mm 4 mps 757 mmHg 17%
    12:00 +40°C° 0 mm 5 mps 757 mmHg 14%
    13:00 +40°C° 0 mm 6 mps 757 mmHg 13%
    14:00 +40°C° 0 mm 6 mps 756 mmHg 12%
    15:00 +40°C° 0 mm 7 mps 756 mmHg 11%
    16:00 +38°C° 0 mm 6 mps 756 mmHg 15%
    17:00 +35°C° 0 mm 6 mps 756 mmHg 18%
    18:00 +33°C° 0 mm 5 mps 756 mmHg 22%
    19:00 +30°C° 0 mm 4 mps 756 mmHg 28%
    20:00 +28°C° 0 mm 3 mps 757 mmHg 35%
    21:00 +26°C° 0 mm 2 mps 757 mmHg 42%
    22:00 +26°C° 0 mm 2 mps 757 mmHg 42%
    23:00 +25°C° 0 mm 2 mps 757 mmHg 43%

    26 August, Monday

    Time Temperature Precipitation Wind Pressure Humidity
    00:00 +25°C° 0 mm 2 mps 757 mmHg 44%
    01:00 +24°C° 0 mm 2 mps 757 mmHg 45%
    02:00 +23°C° 0 mm 1 mps 757 mmHg 46%
    03:00 +22°C° 0 mm 1 mps 756 mmHg 47%
    04:00 +23°C° 0 mm 1 mps 757 mmHg 44%
    05:00 +24°C° 0 mm 1 mps 757 mmHg 41%
    06:00 +25°C° 0 mm 2 mps 757 mmHg 38%
    07:00 +28°C° 0 mm 1 mps 757 mmHg 31%
    08:00 +30°C° 0 mm 1 mps 757 mmHg 25%
    09:00 +33°C° 0 mm 1 mps 757 mmHg 19%
    10:00 +34°C° 0 mm 1 mps 757 mmHg 17%
    11:00 +37°C° 0 mm 2 mps 757 mmHg 14%
    12:00 +38°C° 0 mm 2 mps 757 mmHg 12%
    13:00 +38°C° 0 mm 4 mps 757 mmHg 13%
    14:00 +40°C° 0 mm 5 mps 756 mmHg 14%
    15:00 +40°C° 0 mm 7 mps 756 mmHg 14%
    16:00 +38°C° 0 mm 7 mps 757 mmHg 17%
    17:00 +35°C° 0 mm 7 mps 757 mmHg 19%
    18:00 +34°C° 0 mm 7 mps 757 mmHg 22%
    19:00 +33°C° 0 mm 8 mps 758 mmHg 22%
    20:00 +32°C° 0 mm 8 mps 758 mmHg 23%
    21:00 +32°C° 0 mm 8 mps 759 mmHg 23%
    22:00 +30°C° 0 mm 7 mps 759 mmHg 24%
    23:00 +30°C° 0 mm 7 mps 759 mmHg 24%
    Show more